When you browse on this site, cookies collect data to enhance your experience and personalize the content and advertising you see.
Visit our Privacy Policy to learn more. By continuing to use the site, you agree to this use of cookies and data.
  • In Portugal
  • List of Countries
  • For 7 days
  • Water Temperature
  • Satellite Maps
  • Weather Map
  • Weather Widgets
  • user-avatar
    Login

    Hourly Weather Zychce

    Today, 10 December, Monday

    Time Temperature Precipitation Wind Pressure Humidity
    00:00 +4°C° 0.3 mm 4 mps 732 mmHg 90%
    01:00 +4°C° 0 mm 4 mps 732 mmHg 91%
    02:00 +3°C° 0.3 mm 5 mps 733 mmHg 86%
    03:00 +2°C° 0.3 mm 6 mps 733 mmHg 80%
    04:00 +2°C° 0.3 mm 7 mps 734 mmHg 75%
    05:00 +2°C° 0 mm 6 mps 734 mmHg 75%
    06:00 +2°C° 0 mm 6 mps 735 mmHg 76%
    07:00 +1°C° 0 mm 5 mps 736 mmHg 77%
    08:00 +2°C° 0 mm 5 mps 736 mmHg 76%
    09:00 +2°C° 0 mm 6 mps 737 mmHg 74%
    10:00 +2°C° 0 mm 6 mps 737 mmHg 73%
    11:00 +2°C° 0.1 mm 6 mps 738 mmHg 71%
    12:00 +2°C° 0.1 mm 6 mps 738 mmHg 70%
    13:00 +3°C° 0.1 mm 6 mps 738 mmHg 68%
    14:00 +2°C° 0.1 mm 6 mps 738 mmHg 70%
    15:00 +2°C° 0.1 mm 5 mps 738 mmHg 72%
    16:00 +1°C° 0.1 mm 4 mps 738 mmHg 74%
    17:00 +1°C° 0 mm 4 mps 738 mmHg 76%
    18:00 +1°C° 0 mm 4 mps 738 mmHg 78%
    19:00 0°C° 0 mm 4 mps 739 mmHg 81%
    20:00 0°C° 0 mm 4 mps 739 mmHg 82%
    21:00 0°C° 0 mm 4 mps 739 mmHg 83%
    22:00 0°C° 0 mm 4 mps 739 mmHg 85%
    23:00 0°C° 0.2 mm 4 mps 739 mmHg 85%

    Tomorrow, 11 December, Tuesday

    Time Temperature Precipitation Wind Pressure Humidity
    00:00 0°C° 0.2 mm 4 mps 739 mmHg 85%
    01:00 0°C° 0.2 mm 4 mps 739 mmHg 85%
    02:00 +1°C° 0.3 mm 3 mps 739 mmHg 86%
    03:00 +1°C° 0.3 mm 3 mps 739 mmHg 87%
    04:00 +2°C° 0.3 mm 2 mps 739 mmHg 88%
    05:00 +2°C° 0.1 mm 2 mps 739 mmHg 89%
    06:00 +2°C° 0.1 mm 2 mps 740 mmHg 90%
    07:00 +2°C° 0.1 mm 2 mps 740 mmHg 92%
    08:00 +2°C° 0 mm 2 mps 740 mmHg 91%
    09:00 +2°C° 0 mm 2 mps 741 mmHg 90%
    10:00 +2°C° 0 mm 2 mps 742 mmHg 89%
    11:00 +3°C° 0 mm 2 mps 742 mmHg 88%
    12:00 +3°C° 0 mm 2 mps 743 mmHg 86%
    13:00 +2°C° 0 mm 3 mps 743 mmHg 85%
    14:00 +2°C° 0 mm 3 mps 744 mmHg 86%
    15:00 +2°C° 0 mm 3 mps 744 mmHg 87%
    16:00 +1°C° 0 mm 3 mps 745 mmHg 88%
    17:00 +1°C° 0 mm 3 mps 745 mmHg 88%
    18:00 +1°C° 0 mm 3 mps 746 mmHg 88%
    19:00 +1°C° 0 mm 2 mps 746 mmHg 88%
    20:00 +1°C° 0 mm 2 mps 747 mmHg 88%
    21:00 +1°C° 0 mm 2 mps 747 mmHg 89%
    22:00 +1°C° 0 mm 2 mps 748 mmHg 89%
    23:00 +1°C° 0 mm 2 mps 748 mmHg 90%

    Day after tomorrow, 12 December, Wednesday

    Time Temperature Precipitation Wind Pressure Humidity
    00:00 -1°C° 0 mm 2 mps 748 mmHg 91%
    01:00 -1°C° 0 mm 2 mps 749 mmHg 91%
    02:00 -1°C° 0 mm 2 mps 749 mmHg 91%
    03:00 -1°C° 0 mm 2 mps 749 mmHg 92%
    04:00 +1°C° 0 mm 1 mps 750 mmHg 92%
    05:00 +1°C° 0 mm 1 mps 750 mmHg 92%
    06:00 +1°C° 0 mm 1 mps 750 mmHg 92%
    07:00 +1°C° 0 mm 1 mps 751 mmHg 92%
    08:00 +1°C° 0 mm 1 mps 751 mmHg 90%
    09:00 +2°C° 0 mm 1 mps 751 mmHg 89%
    10:00 +2°C° 0 mm 1 mps 752 mmHg 87%
    11:00 +3°C° 0 mm 1 mps 752 mmHg 86%
    12:00 +3°C° 0 mm 1 mps 752 mmHg 84%
    13:00 +3°C° 0 mm 1 mps 752 mmHg 83%
    14:00 +3°C° 0.1 mm 1 mps 752 mmHg 86%
    15:00 +3°C° 0.1 mm 1 mps 752 mmHg 89%
    16:00 +2°C° 0.1 mm 1 mps 752 mmHg 92%
    17:00 +2°C° 0.1 mm 1 mps 752 mmHg 93%
    18:00 +2°C° 0.1 mm 1 mps 752 mmHg 93%
    19:00 +1°C° 0.1 mm 2 mps 753 mmHg 94%
    20:00 +1°C° 0 mm 2 mps 753 mmHg 94%
    21:00 -1°C° 0 mm 2 mps 753 mmHg 94%
    22:00 -1°C° 0 mm 2 mps 753 mmHg 94%
    23:00 -1°C° 0 mm 2 mps 753 mmHg 93%

    13 December, Thursday

    Time Temperature Precipitation Wind Pressure Humidity
    00:00 -1°C° 0 mm 2 mps 753 mmHg 93%
    01:00 -1°C° 0 mm 2 mps 753 mmHg 92%
    02:00 -1°C° 0 mm 2 mps 753 mmHg 92%
    03:00 -1°C° 0 mm 2 mps 752 mmHg 91%
    04:00 -1°C° 0 mm 2 mps 752 mmHg 91%
    05:00 -1°C° 0 mm 2 mps 752 mmHg 90%
    06:00 -1°C° 0 mm 2 mps 752 mmHg 90%
    07:00 -1°C° 0 mm 2 mps 752 mmHg 90%
    08:00 +1°C° 0 mm 2 mps 752 mmHg 88%
    09:00 +1°C° 0 mm 2 mps 751 mmHg 86%
    10:00 +1°C° 0 mm 2 mps 751 mmHg 84%
    11:00 0°C° 0.1 mm 3 mps 751 mmHg 82%
    12:00 0°C° 0.1 mm 3 mps 751 mmHg 80%
    13:00 0°C° 0.1 mm 3 mps 751 mmHg 79%
    14:00 0°C° 0 mm 3 mps 751 mmHg 80%
    15:00 +1°C° 0 mm 2 mps 751 mmHg 82%
    16:00 -1°C° 0 mm 2 mps 751 mmHg 84%
    17:00 -1°C° 0 mm 2 mps 751 mmHg 85%
    18:00 -1°C° 0 mm 2 mps 751 mmHg 87%
    19:00 -2°C° 0 mm 2 mps 751 mmHg 88%
    20:00 -1°C° 0 mm 2 mps 751 mmHg 88%
    21:00 +1°C° 0 mm 1 mps 751 mmHg 89%
    22:00 +1°C° 0 mm 1 mps 752 mmHg 89%
    23:00 +1°C° 0 mm 1 mps 752 mmHg 89%

    14 December, Friday

    Time Temperature Precipitation Wind Pressure Humidity
    00:00 +1°C° 0 mm 1 mps 752 mmHg 90%
    01:00 +1°C° 0 mm 1 mps 752 mmHg 90%
    02:00 0°C° 0 mm 1 mps 752 mmHg 91%
    03:00 0°C° 0 mm 1 mps 753 mmHg 92%
    04:00 0°C° 0 mm 1 mps 753 mmHg 94%
    05:00 -2°C° 0 mm 2 mps 753 mmHg 94%
    06:00 -2°C° 0 mm 2 mps 754 mmHg 94%
    07:00 -2°C° 0 mm 2 mps 754 mmHg 95%
    08:00 -2°C° 0 mm 2 mps 755 mmHg 93%
    09:00 -2°C° 0 mm 2 mps 755 mmHg 91%
    10:00 -1°C° 0 mm 2 mps 756 mmHg 89%
    11:00 -1°C° 0 mm 2 mps 756 mmHg 87%
    12:00 -1°C° 0 mm 2 mps 756 mmHg 85%
    13:00 +1°C° 0 mm 2 mps 757 mmHg 83%
    14:00 -1°C° 0 mm 2 mps 757 mmHg 86%
    15:00 -1°C° 0 mm 2 mps 757 mmHg 88%
    16:00 -2°C° 0 mm 2 mps 757 mmHg 91%
    17:00 -2°C° 0 mm 2 mps 758 mmHg 92%
    18:00 -2°C° 0 mm 2 mps 758 mmHg 92%
    19:00 -2°C° 0 mm 2 mps 758 mmHg 92%
    20:00 -2°C° 0 mm 2 mps 759 mmHg 92%
    21:00 -2°C° 0 mm 2 mps 759 mmHg 91%
    22:00 -2°C° 0 mm 2 mps 759 mmHg 91%
    23:00 0°C° 0 mm 1 mps 759 mmHg 91%

    15 December, Saturday

    Time Temperature Precipitation Wind Pressure Humidity
    00:00 0°C° 0 mm 1 mps 760 mmHg 91%
    01:00 0°C° 0 mm 1 mps 760 mmHg 91%
    02:00 0°C° 0 mm 1 mps 760 mmHg 90%
    03:00 0°C° 0 mm 1 mps 760 mmHg 90%
    04:00 0°C° 0 mm 1 mps 760 mmHg 89%
    05:00 -2°C° 0 mm 2 mps 761 mmHg 89%
    06:00 -2°C° 0 mm 2 mps 761 mmHg 89%
    07:00 -2°C° 0 mm 2 mps 761 mmHg 88%
    08:00 -2°C° 0 mm 2 mps 761 mmHg 86%
    09:00 -1°C° 0 mm 2 mps 762 mmHg 84%
    10:00 -1°C° 0 mm 2 mps 762 mmHg 82%
    11:00 -1°C° 0 mm 2 mps 762 mmHg 80%
    12:00 -1°C° 0 mm 2 mps 762 mmHg 78%
    13:00 +1°C° 0 mm 2 mps 762 mmHg 76%
    14:00 -1°C° 0 mm 2 mps 762 mmHg 80%
    15:00 -1°C° 0 mm 2 mps 762 mmHg 84%
    16:00 -2°C° 0 mm 2 mps 762 mmHg 88%
    17:00 -2°C° 0 mm 2 mps 762 mmHg 89%
    18:00 -2°C° 0 mm 3 mps 762 mmHg 90%
    19:00 -4°C° 0 mm 3 mps 762 mmHg 91%
    20:00 -4°C° 0 mm 3 mps 762 mmHg 91%
    21:00 -4°C° 0 mm 3 mps 762 mmHg 90%
    22:00 -4°C° 0 mm 3 mps 762 mmHg 90%
    23:00 -4°C° 0 mm 4 mps 761 mmHg 89%
    Show more